TimeEST,TemperatureF,Dew PointF,Humidity,Sea Level PressureIn,VisibilityMPH,Wind Direction,Wind SpeedMPH,Gust SpeedMPH,PrecipitationIn,Events,Conditions,WindDirDegrees,DateUTC
12:53 AM,45.0,35.1,68,29.69,10.0,West,16.1,24.2,N/A,,Clear,260,2012-12-27 05:53:00
1:53 AM,44.1,34.0,68,29.72,10.0,West,18.4,-,N/A,,Clear,270,2012-12-27 06:53:00
2:53 AM,43.0,33.1,68,29.74,10.0,West,12.7,-,N/A,,Clear,270,2012-12-27 07:53:00
3:53 AM,41.0,33.1,73,29.77,10.0,West,15.0,-,N/A,,Clear,260,2012-12-27 08:53:00
4:53 AM,39.9,32.0,73,29.78,10.0,West,13.8,-,N/A,,Clear,270,2012-12-27 09:53:00
5:53 AM,39.0,32.0,76,29.81,10.0,West,11.5,-,N/A,,Clear,260,2012-12-27 10:53:00
6:53 AM,37.9,32.0,79,29.84,10.0,West,9.2,-,N/A,,Clear,260,2012-12-27 11:53:00
7:53 AM,39.2,32.0,75,29.88,10.0,West,13.8,-,N/A,,Clear,260,2012-12-27 12:53:00
8:53 AM,42.1,33.1,70,29.91,10.0,West,12.7,-,N/A,,Clear,280,2012-12-27 13:53:00
9:53 AM,45.0,33.1,63,29.93,10.0,West,15.0,20.7,N/A,,Clear,270,2012-12-27 14:53:00
10:53 AM,48.0,33.1,56,29.93,10.0,WNW,13.8,21.9,N/A,,Clear,290,2012-12-27 15:53:00
11:53 AM,50.0,33.1,52,29.92,10.0,WNW,13.8,20.7,N/A,,Clear,290,2012-12-27 16:53:00
12:53 PM,52.0,33.1,49,29.90,10.0,WNW,13.8,-,N/A,,Clear,290,2012-12-27 17:53:00
1:53 PM,54.0,34.0,47,29.91,10.0,West,10.4,-,N/A,,Clear,280,2012-12-27 18:53:00
2:53 PM,55.0,33.1,43,29.92,10.0,WNW,15.0,-,N/A,,Clear,290,2012-12-27 19:53:00
3:53 PM,55.4,33.8,44,29.95,10.0,West,10.4,-,N/A,,Clear,280,2012-12-27 20:53:00
4:53 PM,52.0,33.1,49,29.95,10.0,WNW,8.1,-,N/A,,Clear,290,2012-12-27 21:53:00
5:53 PM,48.9,33.1,54,29.99,10.0,Calm,Calm,-,N/A,,Clear,0,2012-12-27 22:53:00
6:53 PM,46.0,33.1,61,30.00,10.0,NNW,4.6,-,N/A,,Clear,340,2012-12-27 23:53:00
7:53 PM,45.0,33.1,63,30.02,10.0,NNW,5.8,-,N/A,,Clear,340,2012-12-28 00:53:00
8:53 PM,43.0,34.0,71,30.03,10.0,NNW,6.9,-,N/A,,Clear,330,2012-12-28 01:53:00
9:53 PM,44.1,33.1,65,30.04,10.0,NNW,4.6,-,N/A,,Clear,340,2012-12-28 02:53:00
10:53 PM,41.0,35.1,79,30.06,10.0,WSW,3.5,-,N/A,,Clear,240,2012-12-28 03:53:00
11:53 PM,41.0,34.0,76,30.06,10.0,Calm,Calm,-,N/A,,Clear,0,2012-12-28 04:53:00